Time,TemperatureF,DewpointF,PressureIn,WindDirection,WindDirectionDegrees,WindSpeedMPH,WindSpeedGustMPH,Humidity,HourlyPrecipIn,Conditions,Clouds,dailyrainin,SoftwareType,DateUTC
2013-12-09 00:12:00,44.8,44.0,30.11,North,4,0.0,2.0,95,0.00,,,0.00,weatherlink.com 1.10,2013-12-09 06:12:00,
2013-12-09 00:27:00,44.9,44.0,30.10,NNW,347,0.0,1.0,95,0.00,,,0.00,weatherlink.com 1.10,2013-12-09 06:27:00,
2013-12-09 00:42:00,45.0,44.0,30.11,East,96,0.0,0.0,95,0.00,,,0.00,weatherlink.com 1.10,2013-12-09 06:42:00,
2013-12-09 00:57:00,45.0,44.0,30.10,NNW,345,0.0,0.0,95,0.00,,,0.00,weatherlink.com 1.10,2013-12-09 06:57:00,
2013-12-09 01:12:00,45.0,44.0,30.10,NW,323,0.0,0.0,95,0.00,,,0.00,weatherlink.com 1.10,2013-12-09 07:12:00,
2013-12-09 01:27:00,45.1,44.0,30.10,NW,311,0.0,0.0,95,0.00,,,0.00,weatherlink.com 1.10,2013-12-09 07:27:00,
2013-12-09 01:42:00,45.2,44.0,30.10,NNW,328,0.0,0.0,95,0.00,,,0.00,weatherlink.com 1.10,2013-12-09 07:42:00,
2013-12-09 01:57:00,45.3,44.0,30.10,NNW,338,0.0,0.0,95,0.00,,,0.00,weatherlink.com 1.10,2013-12-09 07:57:00,
2013-12-09 02:12:00,45.3,44.0,30.09,NW,324,0.0,2.0,95,0.00,,,0.00,weatherlink.com 1.10,2013-12-09 08:12:00,
2013-12-09 02:27:00,45.3,44.0,30.09,NE,46,0.0,0.0,95,0.00,,,0.00,weatherlink.com 1.10,2013-12-09 08:27:00,
2013-12-09 02:43:00,45.3,44.0,30.09,NNW,343,0.0,0.0,95,0.00,,,0.00,weatherlink.com 1.10,2013-12-09 08:43:00,
2013-12-09 02:58:00,45.3,44.0,30.08,NW,324,0.0,3.0,95,0.00,,,0.00,weatherlink.com 1.10,2013-12-09 08:58:00,
2013-12-09 03:13:00,45.3,44.0,30.07,West,269,0.0,0.0,95,0.00,,,0.00,weatherlink.com 1.10,2013-12-09 09:13:00,
2013-12-09 03:28:00,45.4,44.0,30.08,NE,36,0.0,0.0,95,0.00,,,0.00,weatherlink.com 1.10,2013-12-09 09:28:00,
2013-12-09 03:43:00,45.5,44.0,30.09,NW,321,0.0,0.0,95,0.00,,,0.00,weatherlink.com 1.10,2013-12-09 09:43:00,
2013-12-09 03:58:00,45.6,44.0,30.08,ENE,58,0.0,0.0,95,0.00,,,0.00,weatherlink.com 1.10,2013-12-09 09:58:00,
2013-12-09 04:13:00,45.6,44.0,30.08,NE,49,0.0,0.0,95,0.00,,,0.00,weatherlink.com 1.10,2013-12-09 10:13:00,
2013-12-09 04:28:00,45.7,44.0,30.09,East,98,0.0,0.0,95,0.00,,,0.00,weatherlink.com 1.10,2013-12-09 10:28:00,
2013-12-09 04:43:00,45.8,45.0,30.08,NE,56,0.0,0.0,95,0.00,,,0.00,weatherlink.com 1.10,2013-12-09 10:43:00,
2013-12-09 04:58:00,45.9,45.0,30.09,East,98,0.0,0.0,95,0.00,,,0.00,weatherlink.com 1.10,2013-12-09 10:58:00,
2013-12-09 05:13:00,45.9,45.0,30.10,East,88,0.0,0.0,95,0.00,,,0.00,weatherlink.com 1.10,2013-12-09 11:13:00,
2013-12-09 05:28:00,45.9,45.0,30.11,ENE,74,0.0,0.0,95,0.00,,,0.00,weatherlink.com 1.10,2013-12-09 11:28:00,
2013-12-09 05:43:00,45.8,45.0,30.09,NE,50,0.0,0.0,95,0.00,,,0.00,weatherlink.com 1.10,2013-12-09 11:43:00,
2013-12-09 05:58:00,45.8,45.0,30.10,NE,45,0.0,0.0,95,0.00,,,0.00,weatherlink.com 1.10,2013-12-09 11:58:00,
2013-12-09 06:13:00,45.7,44.0,30.09,ENE,66,0.0,0.0,95,0.00,,,0.00,weatherlink.com 1.10,2013-12-09 12:13:00,
2013-12-09 06:28:00,45.7,44.0,30.10,NE,50,0.0,2.0,95,0.00,,,0.00,weatherlink.com 1.10,2013-12-09 12:28:00,
2013-12-09 06:43:00,45.6,44.0,30.11,SW,235,0.0,0.0,95,0.00,,,0.00,weatherlink.com 1.10,2013-12-09 12:43:00,
2013-12-09 06:58:00,45.6,44.0,30.12,NW,326,0.0,0.0,95,0.00,,,0.00,weatherlink.com 1.10,2013-12-09 12:58:00,
2013-12-09 07:13:00,45.5,44.0,30.12,NE,50,0.0,0.0,95,0.00,,,0.00,weatherlink.com 1.10,2013-12-09 13:13:00,
2013-12-09 07:28:00,45.4,44.0,30.12,NE,50,0.0,0.0,96,0.00,,,0.00,weatherlink.com 1.10,2013-12-09 13:28:00,
2013-12-09 07:43:00,45.4,44.0,30.12,NE,52,0.0,0.0,96,0.00,,,0.00,weatherlink.com 1.10,2013-12-09 13:43:00,
2013-12-09 07:58:00,45.4,44.0,30.12,NE,35,0.0,0.0,96,0.00,,,0.00,weatherlink.com 1.10,2013-12-09 13:58:00,
2013-12-09 08:13:00,45.4,44.0,30.13,NE,41,0.0,0.0,96,0.00,,,0.00,weatherlink.com 1.10,2013-12-09 14:13:00,
2013-12-09 08:28:00,45.5,45.0,30.14,ENE,60,0.0,2.0,96,0.00,,,0.00,weatherlink.com 1.10,2013-12-09 14:28:00,
2013-12-09 08:43:00,45.5,45.0,30.14,East,88,0.0,1.0,96,0.00,,,0.00,weatherlink.com 1.10,2013-12-09 14:43:00,
2013-12-09 08:58:00,45.7,45.0,30.15,NNE,29,0.0,0.0,96,0.00,,,0.00,weatherlink.com 1.10,2013-12-09 14:58:00,
2013-12-09 09:13:00,45.8,45.0,30.16,NE,54,0.0,1.0,96,0.00,,,0.00,weatherlink.com 1.10,2013-12-09 15:13:00,
2013-12-09 09:28:00,46.0,45.0,30.16,NE,39,0.0,0.0,95,0.00,,,0.00,weatherlink.com 1.10,2013-12-09 15:28:00,
2013-12-09 09:43:00,46.1,45.0,30.16,North,352,0.0,0.0,95,0.00,,,0.00,weatherlink.com 1.10,2013-12-09 15:43:00,
2013-12-09 09:58:00,46.2,45.0,30.17,NNE,20,0.0,0.0,95,0.00,,,0.00,weatherlink.com 1.10,2013-12-09 15:58:00,
2013-12-09 10:13:00,46.2,45.0,30.16,NNE,29,0.0,0.0,95,0.00,,,0.00,weatherlink.com 1.10,2013-12-09 16:13:00,
2013-12-09 10:28:00,46.2,45.0,30.16,NE,35,0.0,3.0,95,0.01,,,0.01,weatherlink.com 1.10,2013-12-09 16:28:00,
2013-12-09 10:43:00,46.0,45.0,30.16,ENE,58,0.0,1.0,95,0.01,,,0.01,weatherlink.com 1.10,2013-12-09 16:43:00,
2013-12-09 10:58:00,46.0,45.0,30.16,NW,322,0.0,0.0,95,0.01,,,0.01,weatherlink.com 1.10,2013-12-09 16:58:00,
2013-12-09 11:13:00,46.0,45.0,30.16,NE,38,0.0,1.0,95,0.01,,,0.01,weatherlink.com 1.10,2013-12-09 17:13:00,
2013-12-09 11:28:00,46.4,45.0,30.15,NNE,29,0.0,0.0,95,0.00,,,0.01,weatherlink.com 1.10,2013-12-09 17:28:00,
2013-12-09 11:43:00,46.4,45.0,30.14,NNE,21,0.0,1.0,94,0.00,,,0.01,weatherlink.com 1.10,2013-12-09 17:43:00,
2013-12-09 11:58:00,46.4,45.0,30.12,East,101,0.0,3.0,94,0.00,,,0.01,weatherlink.com 1.10,2013-12-09 17:58:00,
2013-12-09 12:13:00,46.5,45.0,30.12,ENE,60,0.0,1.0,94,0.00,,,0.01,weatherlink.com 1.10,2013-12-09 18:13:00,
2013-12-09 12:28:00,46.3,45.0,30.12,North,8,0.0,0.0,94,0.00,,,0.01,weatherlink.com 1.10,2013-12-09 18:28:00,
2013-12-09 12:43:00,46.4,45.0,30.11,North,351,0.0,0.0,94,0.00,,,0.01,weatherlink.com 1.10,2013-12-09 18:43:00,
2013-12-09 12:58:00,46.3,45.0,30.10,NE,36,0.0,1.0,94,0.00,,,0.01,weatherlink.com 1.10,2013-12-09 18:58:00,
2013-12-09 13:13:00,46.1,45.0,30.09,North,4,0.0,1.0,95,0.00,,,0.01,weatherlink.com 1.10,2013-12-09 19:13:00,
2013-12-09 13:28:00,45.9,45.0,30.09,NNW,347,0.0,1.0,95,0.00,,,0.01,weatherlink.com 1.10,2013-12-09 19:28:00,
2013-12-09 13:43:00,45.9,45.0,30.09,ENE,58,0.0,1.0,95,0.00,,,0.01,weatherlink.com 1.10,2013-12-09 19:43:00,
2013-12-09 13:58:00,45.6,44.0,30.08,ENE,69,0.0,2.0,95,0.01,,,0.02,weatherlink.com 1.10,2013-12-09 19:58:00,
2013-12-09 14:13:00,45.5,45.0,30.07,ENE,74,0.0,2.0,96,0.01,,,0.02,weatherlink.com 1.10,2013-12-09 20:13:00,
2013-12-09 14:28:00,45.3,44.0,30.07,NE,38,0.0,1.0,96,0.01,,,0.02,weatherlink.com 1.10,2013-12-09 20:28:00,
2013-12-09 14:44:00,45.1,44.0,30.06,NE,56,0.0,1.0,95,0.01,,,0.02,weatherlink.com 1.10,2013-12-09 20:44:00,
2013-12-09 14:59:00,45.0,44.0,30.06,NE,53,0.0,1.0,96,0.00,,,0.02,weatherlink.com 1.10,2013-12-09 20:59:00,
2013-12-09 15:14:00,45.0,44.0,30.06,NNE,20,0.0,0.0,96,0.00,,,0.02,weatherlink.com 1.10,2013-12-09 21:14:00,
2013-12-09 15:29:00,44.8,44.0,30.05,East,84,0.0,2.0,96,0.00,,,0.02,weatherlink.com 1.10,2013-12-09 21:29:00,
2013-12-09 15:44:00,44.7,44.0,30.06,NW,322,0.0,3.0,96,0.00,,,0.02,weatherlink.com 1.10,2013-12-09 21:44:00,
2013-12-09 15:59:00,44.5,44.0,30.07,NNW,338,0.0,4.0,96,0.01,,,0.03,weatherlink.com 1.10,2013-12-09 21:59:00,
2013-12-09 16:14:00,44.4,43.0,30.07,North,360,0.0,1.0,96,0.01,,,0.03,weatherlink.com 1.10,2013-12-09 22:14:00,
2013-12-09 16:29:00,44.1,43.0,30.06,NE,37,0.0,0.0,96,0.01,,,0.03,weatherlink.com 1.10,2013-12-09 22:29:00,
2013-12-09 16:44:00,43.9,43.0,30.07,NNE,30,0.0,0.0,96,0.01,,,0.03,weatherlink.com 1.10,2013-12-09 22:44:00,
2013-12-09 16:59:00,43.7,43.0,30.08,North,9,0.0,0.0,96,0.02,,,0.05,weatherlink.com 1.10,2013-12-09 22:59:00,
2013-12-09 17:14:00,43.4,42.0,30.08,NW,304,0.0,1.0,96,0.02,,,0.05,weatherlink.com 1.10,2013-12-09 23:14:00,
2013-12-09 17:29:00,43.3,42.0,30.07,NE,54,0.0,1.0,96,0.03,,,0.06,weatherlink.com 1.10,2013-12-09 23:29:00,
2013-12-09 17:44:00,43.3,42.0,30.08,NE,56,0.0,0.0,96,0.03,,,0.06,weatherlink.com 1.10,2013-12-09 23:44:00,
2013-12-09 17:59:00,43.3,42.0,30.09,NNW,335,0.0,0.0,96,0.01,,,0.06,weatherlink.com 1.10,2013-12-09 23:59:00,
2013-12-09 18:14:00,43.2,42.0,30.11,NW,311,0.0,4.0,96,0.01,,,0.06,weatherlink.com 1.10,2013-12-10 00:14:00,
2013-12-09 18:29:00,43.1,42.0,30.12,NW,319,0.0,6.0,96,0.01,,,0.07,weatherlink.com 1.10,2013-12-10 00:29:00,
2013-12-09 18:44:00,42.9,42.0,30.13,NNE,26,0.0,4.0,96,0.02,,,0.08,weatherlink.com 1.10,2013-12-10 00:44:00,
2013-12-09 18:59:00,42.7,42.0,30.13,NNW,336,0.0,3.0,96,0.02,,,0.08,weatherlink.com 1.10,2013-12-10 00:59:00,
2013-12-09 19:14:00,42.5,42.0,30.12,NNE,29,0.0,4.0,96,0.02,,,0.08,weatherlink.com 1.10,2013-12-10 01:14:00,
2013-12-09 19:29:00,42.4,41.0,30.13,ENE,61,0.0,5.0,96,0.01,,,0.08,weatherlink.com 1.10,2013-12-10 01:29:00,
2013-12-09 19:44:00,42.0,41.0,30.14,North,354,0.0,8.0,96,0.00,,,0.08,weatherlink.com 1.10,2013-12-10 01:44:00,
2013-12-09 19:59:00,42.1,41.0,30.14,NNW,335,0.0,6.0,96,0.00,,,0.08,weatherlink.com 1.10,2013-12-10 01:59:00,
2013-12-09 20:14:00,42.0,41.0,30.15,NNE,14,0.0,7.0,96,0.00,,,0.08,weatherlink.com 1.10,2013-12-10 02:14:00,
2013-12-09 20:29:00,42.0,41.0,30.16,NNW,328,0.0,5.0,96,0.00,,,0.08,weatherlink.com 1.10,2013-12-10 02:29:00,
2013-12-09 20:44:00,41.9,41.0,30.16,NW,316,3.0,5.0,96,0.00,,,0.08,weatherlink.com 1.10,2013-12-10 02:44:00,
2013-12-09 20:59:00,41.7,41.0,30.17,NNE,23,0.0,9.0,96,0.00,,,0.08,weatherlink.com 1.10,2013-12-10 02:59:00,
2013-12-09 21:14:00,41.5,40.0,30.18,NNE,18,0.0,7.0,95,0.00,,,0.08,weatherlink.com 1.10,2013-12-10 03:14:00,
2013-12-09 21:29:00,41.3,40.0,30.18,NNE,16,0.0,6.0,95,0.00,,,0.08,weatherlink.com 1.10,2013-12-10 03:29:00,
2013-12-09 21:44:00,41.1,40.0,30.19,North,11,0.0,6.0,95,0.00,,,0.08,weatherlink.com 1.10,2013-12-10 03:44:00,
2013-12-09 21:59:00,40.9,40.0,30.19,NNW,332,0.0,7.0,95,0.00,,,0.08,weatherlink.com 1.10,2013-12-10 03:59:00,
2013-12-09 22:14:00,40.8,40.0,30.20,WNW,282,0.0,7.0,95,0.00,,,0.08,weatherlink.com 1.10,2013-12-10 04:14:00,
2013-12-09 22:29:00,40.6,39.0,30.21,WNW,301,6.0,10.0,95,0.00,,,0.08,weatherlink.com 1.10,2013-12-10 04:29:00,
2013-12-09 22:44:00,40.3,39.0,30.22,North,9,0.0,10.0,95,0.00,,,0.08,weatherlink.com 1.10,2013-12-10 04:44:00,
2013-12-09 22:59:00,40.2,39.0,30.22,WNW,292,0.0,5.0,95,0.00,,,0.08,weatherlink.com 1.10,2013-12-10 04:59:00,
2013-12-09 23:14:00,40.2,39.0,30.22,NNE,16,0.0,6.0,95,0.00,,,0.08,weatherlink.com 1.10,2013-12-10 05:14:00,
2013-12-09 23:29:00,40.2,39.0,30.22,NW,308,0.0,9.0,95,0.00,,,0.08,weatherlink.com 1.10,2013-12-10 05:29:00,
2013-12-09 23:44:00,40.1,39.0,30.23,North,9,0.0,10.0,95,0.00,,,0.08,weatherlink.com 1.10,2013-12-10 05:44:00,
2013-12-09 23:59:00,40.0,39.0,30.23,NNE,12,0.0,7.0,94,0.00,,,0.08,weatherlink.com 1.10,2013-12-10 05:59:00,